Simultaneous Nadir Overpasses (SNOs) Predictions

Prediction of SNOs between NOAA-20 and METOP-C Satellite Orbit:

Table of predicted SNOs for the next 14.0 days since TLE Epoch: 5/12/2019
Index Date (NOAA-20) Time (NOAA-20) Lat,Lon (NOAA-20) SZA (NOAA-20 ) Date (METOP-C) Time (METOP-C) Lat,Lon (METOP-C) SZA (METOP-C ) Distance(km) Time Diff (sec)
1 05/24/2019 22:37:51 73.35,-168.89 52.63 05/24/2019 22:38:59 73.26,-166.65 52.43 72.37 68
2 05/24/2019 23:28:34 -73.28, -1.43 127.45 05/24/2019 23:29:43 -73.20, 0.55 127.63 64.05 69
3 05/25/2019 00:19:15 73.05, 166.38 52.30 05/25/2019 00:20:26 72.99, 167.42 52.17 34.49 71
4 05/25/2019 01:09:57 -72.99, -26.16 127.79 05/25/2019 01:11:09 -72.93, -25.37 127.89 26.37 72
5 05/25/2019 02:00:38 72.76, 141.64 51.96 05/25/2019 02:01:51 72.77, 141.62 51.96 1.47 73
6 05/25/2019 02:51:22 -72.74, -51.02 128.07 05/25/2019 02:52:34 -72.76, -51.07 128.06 2.88 72
7 05/25/2019 03:42:08 72.76, 116.25 51.95 05/25/2019 03:43:13 72.75, 116.24 51.93 1.71 65
8 05/25/2019 04:32:52 -72.75, -76.41 128.07 05/25/2019 04:33:56 -72.74, -76.45 128.09 1.64 64
9 05/25/2019 05:23:38 72.77, 90.86 51.95 05/25/2019 05:24:34 72.78, 90.96 51.94 3.40 56
10 05/25/2019 06:14:22 -72.76,-101.79 128.08 05/25/2019 06:15:17 -72.77,-101.73 128.07 3.07 55
11 05/25/2019 07:05:07 72.72, 65.58 51.89 05/25/2019 07:05:56 72.76, 65.58 51.91 3.86 49
12 05/25/2019 07:55:52 -72.76,-127.18 128.08 05/25/2019 07:56:39 -72.76,-127.11 128.10 2.52 47
13 05/25/2019 08:46:37 72.73, 40.19 51.88 05/25/2019 08:47:18 72.74, 40.20 51.88 0.98 41
14 05/25/2019 09:37:21 -72.72,-152.46 128.14 05/25/2019 09:38:01 -72.74,-152.49 128.13 2.19 40
15 05/25/2019 10:28:07 72.74, 14.81 51.88 05/25/2019 10:28:40 72.72, 14.82 51.85 2.00 33
16 05/25/2019 11:18:51 -72.72,-177.85 128.15 05/25/2019 11:19:23 -72.72,-177.87 128.16 0.98 32
17 05/25/2019 12:09:36 72.69, -10.48 51.82 05/25/2019 12:10:02 72.70, -10.56 51.82 2.87 26
18 05/25/2019 13:00:21 -72.73, 156.76 128.16 05/25/2019 13:00:44 -72.75, 156.86 128.15 3.71 23
19 05/25/2019 13:51:06 72.70, -35.87 51.81 05/25/2019 13:51:24 72.68, -35.94 51.79 3.28 18
20 05/25/2019 14:41:51 -72.74, 131.37 128.16 05/25/2019 14:42:06 -72.73, 131.48 128.18 3.54 15
21 05/25/2019 15:32:36 72.71, -61.25 51.80 05/25/2019 15:32:45 72.71, -61.22 51.81 1.36 9
22 05/25/2019 16:23:20 -72.69, 106.09 128.22 05/25/2019 16:23:28 -72.71, 106.10 128.21 1.83 8
23 05/25/2019 17:14:06 72.71, -86.64 51.80 05/25/2019 17:14:07 72.69, -86.60 51.78 2.67 1
24 05/25/2019 18:04:50 -72.70, 80.70 128.23 05/25/2019 18:04:50 -72.69, 80.72 128.24 1.16 0
25 05/25/2019 18:55:35 72.67,-111.92 51.74 05/25/2019 18:55:29 72.67,-111.98 51.75 1.84 6
26 05/25/2019 19:46:19 -72.65, 55.42 128.29 05/25/2019 19:46:12 -72.67, 55.34 128.27 3.21 7
27 05/25/2019 20:37:05 72.67,-137.31 51.73 05/25/2019 20:36:51 72.65,-137.36 51.72 2.85 14
28 05/25/2019 21:27:49 -72.66, 30.03 128.29 05/25/2019 21:27:34 -72.65, 29.96 128.30 2.74 15
29 05/25/2019 22:18:35 72.68,-162.70 51.73 05/25/2019 22:18:12 72.68,-162.63 51.73 2.21 23
30 05/25/2019 23:09:19 -72.67, 4.64 128.30 05/25/2019 23:08:55 -72.68, 4.68 128.28 2.00 24
31 05/26/2019 00:00:04 72.64, 172.02 51.67 05/25/2019 23:59:34 72.66, 171.99 51.70 3.25 30
32 05/26/2019 00:50:49 -72.67, -20.74 128.30 05/26/2019 00:50:17 -72.66, -20.70 128.31 1.97 32
33 05/26/2019 01:41:34 72.64, 146.63 51.66 05/26/2019 01:40:56 72.65, 146.61 51.67 0.79 38




NCC Satellite Simultaneous Nadir Overpasses (SNOs) Prediction Service
